Voltar ao catálogo

STARLINK-1372

AtivoComunicaçõesVLEO
NORAD 45543·PAYLOAD·🇺🇸 United States

Lançado Apr 22, 2020 de Cape Canaveral Space Force Station

Loading…

Próximas Passagens (próximas 24 horas)

TLE

AtualizadoSource: CelesTrak SupGP

Época: Sep 14, 2026, 20:18 UTC

1 45543C 20025N   26257.84631944  .00002604  00000+0  51327-4 0  2571
2 45543  53.1515 291.6229 0003417  50.2484 278.4994 15.46608113    11

Acompanhe STARLINK-1372 em tempo real com AllMySat

Download on the App Store